[[{"header":{"parameterUnit":"m.s-1","parameterCategory":1,"la1":30.2991,"la2":30.254,"lo1":-89.0895,"lo2":-89.0444,"dx":0.0017,"dy":0.0017,"nx":28,"ny":28,"refTime":"2022-11-16T15:00:00:Z","depth":0,"parameterNumber":2,"parameterNumberName":"U-component_of_WINDS"},"data":[0,0,0,0,0,0,0,0,0,0,0,0,0,0,0,0,0,0,0,0,0,0,0,0,0,0,0,0,0,0,0,0,0,0,0,0,0,0,0,0,0,0,0,0,0,0,0,0,0,0,0,0,0,0,0,0,0,0,-1.3062,-1.3064,0,-1.3188,-1.319,-1.3191,-1.3155,-1.3152,-1.3149,-1.3147,-1.328,-1.3286,-1.3291,0,0,0,0,0,0,0,0,0,0,0,0,0,-1.2793,-1.2798,-1.3062,-1.3064,-1.3065,-1.3188,-1.319,-1.3191,-1.3155,-1.3152,-1.3149,-1.3146,-1.3278,-1.3285,-1.3292,0,0,0,0,0,0,0,0,0,0,0,0,0,-1.2913,-1.2799,-1.3062,-1.3062,-1.3063,-1.3188,-1.319,-1.3192,-1.3156,-1.3152,-1.3148,-1.3144,-1.3276,-1.3284,-1.3293,-1.3426,0,0,-1.332,-1.3324,0,0,0,0,0,0,0,0,-1.2907,-1.2923,-1.306,-1.3062,-1.3064,-1.3152,-1.3143,-1.3271,-1.3157,-1.3121,-1.3147,-1.3142,-1.3241,-1.3252,-1.3284,-1.3433,-1.3438,-1.3321,-1.3327,-1.333,-1.3333,0,0,0,0,0,0,0,-1.2898,-1.2918,-1.3112,-1.3062,-1.3064,-1.3056,-1.3069,-1.3167,-1.3201,-1.3124,-1.3121,-1.3136,-1.3241,-1.3276,-1.3287,-1.344,-1.3321,-1.3329,-1.3334,-1.3338,-1.3704,-1.3708,0,0,0,0,0,0,-1.2888,-1.2911,-1.3108,-1.3116,-1.2974,-1.3064,-1.3079,-1.3127,-1.32,-1.3207,-1.314,-1.3134,-1.3263,-1.3277,-1.3292,-1.3453,-1.333,-1.3339,-1.3344,-1.3699,-1.3705,-1.3709,0,0,0,0,0,0,-1.2883,-1.2906,-1.3103,-1.3013,-1.3037,-1.3073,-1.3128,-1.3132,-1.3167,-1.3212,-1.3218,-1.3169,-1.326,-1.3279,-1.3393,-1.3457,-1.3343,-1.3351,-1.3694,-1.3701,-1.3707,-1.3776,0,0,0,0,0,0,-1.2875,-1.2904,-1.2955,-1.3014,-1.3042,-1.3202,-1.3132,-1.3137,-1.3182,-1.3176,-1.3241,-1.3249,-1.3258,-1.338,-1.3402,-1.3467,-1.3358,-1.3689,-1.3697,-1.3705,-1.3768,-1.3784,-1.3798,0,0,0,0,0,-1.2866,-1.2971,-1.2958,-1.2982,-1.3106,-1.3205,-1.3221,-1.323,-1.3187,-1.3239,-1.3268,-1.3246,-1.3446,-1.3392,-1.3416,-1.3485,-1.3685,-1.3695,-1.3704,-1.3762,-1.3781,-1.3798,0,0,0,0,0,0,-1.292,-1.2978,-1.2965,-1.3092,-1.3144,-1.3199,-1.3264,-1.325,-1.3316,-1.3308,-1.3316,-1.3331,-1.3448,-1.3478,-1.3416,-1.3618,-1.3559,-1.3574,-1.3595,-1.3613,-1.3628,-1.3619,-1.3365,0,0,0,0,0,-1.2946,-1.3021,-1.3068,-1.3176,-1.3202,-1.3229,-1.3272,-1.3274,-1.3328,-1.3351,-1.3388,-1.3442,-1.3517,-1.3567,-1.3638,-1.3772,-1.3786,-1.3831,-1.3846,-1.3858,-1.3872,-1.3944,-1.3965,-1.3741,-1.3741,-1.3741,0,0,-1.3002,-1.3043,-1.3091,-1.3188,-1.3228,-1.3306,-1.3248,-1.3333,-1.3391,-1.3364,-1.3473,-1.3502,-1.3564,-1.3688,-1.3744,-1.3716,-1.3936,-1.387,-1.3879,-1.3887,-1.3957,-1.3978,-1.3997,-1.3748,-1.3747,-1.3746,0,0,-1.3145,-1.3183,-1.3277,-1.3318,-1.3379,-1.3395,-1.3418,-1.3475,-1.3492,-1.3602,-1.3583,-1.3652,-1.3781,-1.3826,-1.3865,-1.4022,-1.4005,-1.4045,-1.4123,-1.4194,-1.4211,-1.4227,-1.4284,-1.4304,-1.4058,-1.4058,-1.4058,0,-1.3208,-1.3323,-1.3327,-1.3414,-1.3457,-1.3434,-1.3529,-1.3569,-1.3651,-1.3682,-1.3649,-1.3809,-1.3849,-1.3983,-1.4021,-1.4053,-1.408,-1.4039,-1.4208,-1.4224,-1.4239,-1.4293,-1.4314,-1.4063,-1.4062,-1.4062,-1.4061,0,-1.3398,-1.3478,-1.3547,-1.3624,-1.3675,-1.3766,-1.3784,-1.3835,-1.3832,-1.3852,-1.3963,-1.401,-1.409,-1.4121,-1.412,-1.4255,-1.4236,-1.4205,-1.4147,-1.4265,-1.4316,-1.4337,-1.4069,-1.4067,-1.4066,-1.4065,0,0,-1.3581,-1.3657,-1.3683,-1.3718,-1.3782,-1.3845,-1.3934,-1.4011,-1.4055,-1.4111,-1.4187,-1.4295,-1.4267,-1.4312,-1.4314,-1.4376,-1.4498,-1.4338,-1.434,-1.4367,-1.4651,-1.4675,-1.4699,-1.4486,-1.449,-1.4493,-1.4646,0,-1.3729,-1.3886,-1.3891,-1.4034,-1.4108,-1.4086,-1.4164,-1.4212,-1.4233,-1.43,-1.4322,-1.44,-1.4356,-1.4383,-1.4443,-1.4471,-1.4556,-1.4459,-1.4558,-1.4561,-1.4545,-1.4725,-1.4751,-1.4894,-1.4666,-1.467,-1.4672,0,-1.3925,-1.3986,-1.4136,-1.4189,-1.422,-1.429,-1.436,-1.4424,-1.4478,-1.4489,-1.4537,-1.453,-1.4622,-1.4558,-1.4685,-1.462,-1.466,-1.4679,-1.4685,-1.4696,-1.4625,-1.4743,-1.4939,-1.4961,-1.4703,-1.4701,-1.4699,0,-1.4044,-1.4164,-1.4269,-1.4299,-1.4363,-1.4413,-1.4442,-1.4492,-1.4538,-1.4599,-1.4629,-1.47,-1.474,-1.4796,-1.4809,-1.4761,-1.4936,-1.4873,-1.4948,-1.4948,-1.4988,-1.4986,-1.5195,-1.5011,-1.5011,-1.501,-1.501,0,-1.4211,-1.4304,-1.4324,-1.4389,-1.4492,-1.4497,-1.4599,-1.4625,-1.4669,-1.4739,-1.4724,-1.479,-1.4801,-1.487,-1.488,-1.4984,-1.5002,-1.5014,-1.5016,-1.5016,-1.5015,-1.5044,-1.5035,-1.5016,-1.5015,-1.5014,-1.5013,0,-1.4364,-1.438,-1.4493,-1.4544,-1.4558,-1.4633,-1.4676,-1.4739,-1.4756,-1.4845,-1.4866,-1.4894,-1.4974,-1.4991,-1.5087,-1.5093,-1.5217,-1.5208,-1.5199,-1.5198,-1.5273,-1.5266,-1.551,-1.5542,-1.5336,-1.5338,-1.5339,0,-1.447,-1.4541,-1.4598,-1.4643,-1.4674,-1.4747,-1.4793,-1.4799,-1.4848,-1.4913,-1.4968,-1.5046,-1.5109,-1.5238,-1.5267,-1.534,-1.5334,-1.5414,-1.5345,-1.5343,-1.5336,-1.5333,-1.534,-1.5428,-1.543,-1.5432,-1.5434,0,-1.4657,-1.4661,-1.4727,-1.4796,-1.4851,-1.4906,-1.4958,-1.4996,-1.5009,-1.5064,-1.5145,-1.5193,-1.5289,-1.5367,-1.5439,-1.547,-1.5455,-1.5455,-1.5476,-1.5478,-1.547,-1.5476,-1.5236,-1.545,-1.5448,-1.5447,-1.5446,-1.5445,-1.4791,-1.4853,-1.4902,-1.4976,-1.5015,-1.5064,-1.5125,-1.5149,-1.5216,-1.5294,-1.5293,-1.5382,-1.5433,-1.5528,-1.5563,-1.5632,-1.5607,-1.5638,-1.5646,-1.5654,-1.5661,-1.5457,-1.5645,-1.5645,-1.5644,-1.5644,-1.5644,0,-1.4978,-1.5008,-1.5076,-1.5148,-1.5206,-1.5184,-1.524,-1.5291,-1.5368,-1.5417,-1.5478,-1.557,-1.5645,-1.568,-1.5753,-1.5802,-1.5797,-1.5822,-1.5819,-1.5826,-1.5679,-1.5654,-1.5825,-1.5825,-1.5825,-1.5824,-1.5824,-1.5824,-1.5083,-1.5186,-1.5196,-1.5318,-1.5347,-1.5433,-1.5467,-1.5512,-1.555,-1.5653,-1.5715,-1.5736,-1.5779,-1.5855,-1.5923,-1.5931,-1.596,-1.5988,-1.5993,-1.5855,-1.5837,-1.5819,-1.5796,-1.5994,-1.5994,-1.6134,-1.6136,-1.6137]},{"header":{"parameterUnit":"m.s-1","parameterCategory":1,"la1":30.2991,"la2":30.254,"lo1":-89.0895,"lo2":-89.0444,"dx":0.0017,"dy":0.0017,"nx":28,"ny":28,"refTime":"2022-11-16T15:00:00:Z","depth":0,"parameterNumber":3,"parameterNumberName":"V-component_of_WINDS"},"data":[0,0,0,0,0,0,0,0,0,0,0,0,0,0,0,0,0,0,0,0,0,0,0,0,0,0,0,0,0,0,0,0,0,0,0,0,0,0,0,0,0,0,0,0,0,0,0,0,0,0,0,0,0,0,0,0,0,0,-5.9655,-5.9656,0,-5.9784,-5.9786,-5.9787,-5.9704,-5.97,-5.9696,-5.9692,-5.982,-5.9827,-5.9834,0,0,0,0,0,0,0,0,0,0,0,0,0,-5.933,-5.9336,-5.9655,-5.9657,-5.9658,-5.9784,-5.9786,-5.9788,-5.9704,-5.97,-5.9695,-5.969,-5.9818,-5.9826,-5.9834,0,0,0,0,0,0,0,0,0,0,0,0,0,-5.9466,-5.9339,-5.9655,-5.9632,-5.9631,-5.9784,-5.9786,-5.9788,-5.9705,-5.9699,-5.9694,-5.9688,-5.9815,-5.9825,-5.9836,-6.0016,0,0,-5.9868,-5.9872,0,0,0,0,0,0,0,0,-5.9459,-5.9478,-5.9634,-5.9634,-5.9633,-5.9722,-5.9718,-5.9864,-5.9707,-5.9677,-5.9692,-5.9685,-5.9792,-5.9804,-5.9841,-6.0022,-6.0028,-5.9869,-5.9875,-5.988,-5.9883,0,0,0,0,0,0,0,-5.9449,-5.9472,-5.9706,-5.9636,-5.9636,-5.9613,-5.9626,-5.9745,-5.9765,-5.9679,-5.9673,-5.969,-5.9791,-5.9831,-5.9843,-6.003,-5.9868,-5.9878,-5.9884,-5.9888,-6.0363,-6.0369,0,0,0,0,0,0,-5.9443,-5.9465,-5.9702,-5.971,-5.953,-5.9624,-5.9638,-5.9699,-5.9764,-5.9768,-5.9695,-5.9686,-5.9816,-5.9831,-5.9847,-6.0061,-5.9879,-5.9889,-5.9895,-6.0357,-6.0365,-6.0371,0,0,0,0,0,0,-5.9436,-5.9465,-5.9697,-5.9586,-5.9614,-5.9636,-5.9705,-5.9705,-5.9745,-5.9776,-5.9778,-5.9733,-5.9812,-5.9832,-5.9975,-6.0065,-5.9894,-5.9904,-6.0349,-6.0359,-6.0368,-6.0493,0,0,0,0,0,0,-5.9427,-5.9463,-5.9533,-5.9588,-5.962,-5.9824,-5.971,-5.9712,-5.9764,-5.9753,-5.9812,-5.9816,-5.9809,-5.9959,-5.9985,-6.0076,-5.9912,-6.0341,-6.0354,-6.0365,-6.048,-6.0505,-6.0526,0,0,0,0,0,-5.9416,-5.9563,-5.9537,-5.9566,-5.9709,-5.983,-5.9848,-5.9838,-5.9772,-5.9841,-5.9861,-5.9814,-6.0051,-5.9975,-6.0003,-6.0099,-6.0336,-6.035,-6.0364,-6.047,-6.05,-6.0526,0,0,0,0,0,0,-5.9516,-5.9569,-5.9542,-5.9711,-5.9767,-5.9815,-5.9903,-5.987,-5.9944,-5.9931,-5.9914,-5.9928,-6.0076,-6.0101,-6.0016,-6.0275,-6.0183,-6.0203,-6.0254,-6.0282,-6.0305,-6.0295,-5.9921,0,0,0,0,0,-5.9559,-5.9654,-5.9694,-5.984,-5.9869,-5.9882,-5.9934,-5.9921,-5.9977,-6.0,-6.003,-6.0084,-6.017,-6.0228,-6.0309,-6.0484,-6.0494,-6.0563,-6.0586,-6.0604,-6.0622,-6.0714,-6.0744,-6.0418,-6.0418,-6.0418,0,0,-5.9646,-5.9687,-5.9748,-5.9861,-5.9903,-5.9999,-5.9902,-6.0009,-6.008,-6.0016,-6.0152,-6.0176,-6.0235,-6.0394,-6.0465,-6.0419,-6.0714,-6.0623,-6.0637,-6.0645,-6.0732,-6.0762,-6.079,-6.0428,-6.0426,-6.0424,0,0,-5.9856,-5.9897,-6.0022,-6.0065,-6.0129,-6.0137,-6.0167,-6.022,-6.0234,-6.037,-6.0323,-6.0406,-6.0556,-6.06,-6.0642,-6.0866,-6.0825,-6.0893,-6.1012,-6.1102,-6.1127,-6.115,-6.1228,-6.1257,-6.091,-6.0911,-6.0911,0,-5.9956,-6.0102,-6.009,-6.0201,-6.0251,-6.0198,-6.0322,-6.0365,-6.0452,-6.0486,-6.0434,-6.062,-6.0657,-6.0824,-6.0878,-6.0915,-6.0946,-6.0886,-6.1125,-6.1148,-6.1168,-6.1243,-6.1272,-6.0918,-6.0918,-6.0917,-6.0916,0,-6.0222,-6.0323,-6.0416,-6.0503,-6.0563,-6.068,-6.0684,-6.0746,-6.0728,-6.074,-6.0878,-6.092,-6.1008,-6.1046,-6.103,-6.1211,-6.118,-6.1127,-6.1033,-6.1208,-6.1277,-6.1305,-6.093,-6.0927,-6.0924,-6.0923,0,0,-6.0499,-6.0576,-6.061,-6.0648,-6.0714,-6.0791,-6.0905,-6.0992,-6.1045,-6.1106,-6.1199,-6.1327,-6.1278,-6.1325,-6.1312,-6.1391,-6.1564,-6.1328,-6.1329,-6.1369,-6.1763,-6.1802,-6.1835,-6.1537,-6.1542,-6.1547,-6.1758,0,-6.0711,-6.0911,-6.0902,-6.1088,-6.1181,-6.1131,-6.1229,-6.1279,-6.1293,-6.1372,-6.1386,-6.1476,-6.1405,-6.1433,-6.1509,-6.1527,-6.1642,-6.1511,-6.1621,-6.1626,-6.1607,-6.1872,-6.1914,-6.2111,-6.1785,-6.1789,-6.1793,0,-6.0985,-6.1056,-6.1252,-6.1303,-6.1341,-6.143,-6.1508,-6.1585,-6.164,-6.1644,-6.1697,-6.167,-6.1783,-6.1687,-6.184,-6.1751,-6.1795,-6.181,-6.1818,-6.1827,-6.1719,-6.1887,-6.2174,-6.2203,-6.1836,-6.1832,-6.1829,0,-6.1166,-6.131,-6.1446,-6.148,-6.1543,-6.1606,-6.1635,-6.1684,-6.1736,-6.1804,-6.1837,-6.1916,-6.196,-6.2021,-6.2015,-6.1946,-6.217,-6.2074,-6.2175,-6.2175,-6.2224,-6.2221,-6.2521,-6.2255,-6.2254,-6.2254,-6.2253,0,-6.1403,-6.1524,-6.1528,-6.1611,-6.1744,-6.1732,-6.1864,-6.1886,-6.1929,-6.2014,-6.1975,-6.2055,-6.2044,-6.2124,-6.2121,-6.2247,-6.2267,-6.2272,-6.2269,-6.2275,-6.2274,-6.2303,-6.2288,-6.2262,-6.226,-6.2258,-6.2257,0,-6.1627,-6.1635,-6.1779,-6.1826,-6.1841,-6.1937,-6.1976,-6.2054,-6.2064,-6.2172,-6.2196,-6.2211,-6.2303,-6.2304,-6.2408,-6.2406,-6.256,-6.2542,-6.2542,-6.2538,-6.2638,-6.2628,-6.2966,-6.3009,-6.2716,-6.2719,-6.2722,0,-6.1777,-6.187,-6.1927,-6.1982,-6.2015,-6.2103,-6.2156,-6.2147,-6.2203,-6.2272,-6.234,-6.2429,-6.2498,-6.2646,-6.2665,-6.2744,-6.2728,-6.2841,-6.2739,-6.2741,-6.2727,-6.2722,-6.273,-6.286,-6.2864,-6.2866,-6.2868,0,-6.2043,-6.2042,-6.2121,-6.2201,-6.2266,-6.2328,-6.2386,-6.2432,-6.2429,-6.2494,-6.2588,-6.2642,-6.2749,-6.2836,-6.2912,-6.2938,-6.2903,-6.29,-6.2927,-6.2934,-6.2929,-6.2931,-6.2594,-6.2892,-6.289,-6.2888,-6.2887,-6.2886,-6.2234,-6.2313,-6.2365,-6.2454,-6.2496,-6.2551,-6.2625,-6.2645,-6.2723,-6.281,-6.2799,-6.2903,-6.2952,-6.3051,-6.3085,-6.3164,-6.3124,-6.3164,-6.3174,-6.3184,-6.3194,-6.2917,-6.3178,-6.3177,-6.3177,-6.3176,-6.3176,0,-6.2496,-6.2527,-6.2609,-6.2691,-6.276,-6.2721,-6.2782,-6.2842,-6.2935,-6.2985,-6.3054,-6.3161,-6.3244,-6.327,-6.335,-6.3409,-6.3394,-6.343,-6.3425,-6.3431,-6.3226,-6.3194,-6.344,-6.344,-6.344,-6.344,-6.344,-6.344,-6.2641,-6.2771,-6.2776,-6.2927,-6.2956,-6.3059,-6.3096,-6.3145,-6.3185,-6.3306,-6.3376,-6.3392,-6.3432,-6.3514,-6.3589,-6.3594,-6.3624,-6.3667,-6.3665,-6.3473,-6.3446,-6.3421,-6.339,-6.3674,-6.3674,-6.3863,-6.3865,-6.3867]}]]